Zurück zum Katalog

CZ-6A DEB

AktivSSO
NORAD 56280·DEBRIS·🇨🇳 China

Gestartet Nov 11, 2022 von Taiyuan Satellite Launch Center

Loading…

Nächste Überflüge (nächste 24 Stunden)

TLE

AktuellSource: Space-Track

Epoche: Sep 14, 2026, 08:45 UTC

1 56280U 22151ACY 26257.36523875  .00000801  00000-0  53764-3 0  9990
2 56280  98.8909 233.4510 0101033 159.0326 201.5028 14.01095710178279

Verfolge CZ-6A DEB in Echtzeit mit AllMySat

Download on the App Store